PBO Station Position Time Series. Reference Frame : NAM14
Format Version,1.1.1
4-character ID,P372
Station name,EnterpriseOR2007
Begin Date, 2007-05-23
End Date, 2023-06-26
Release Date, 2023-06-27
Reference position, 45.4281374029 North Latitude, -117.2516579169 East Longitude, 1208.31562 meters elevation,
Date, North (mm), East (mm), Vertical (mm), North Std. Deviation (mm), East Std. Deviation (mm),              Vertical Std. Deviation (mm), Quality,
2007-05-23,0.00, 0.00, 0.00, 2.18, 1.55, 7.00, repro,
2007-05-24,-0.69, 0.55, 4.28, 2.23, 1.58, 7.13, repro,
2007-05-25,-1.77, 0.87, 4.74, 2.17, 1.54, 6.94, repro,
2007-05-26,0.09, 2.27, 2.36, 2.21, 1.59, 7.15, repro,
2007-05-27,-0.28, 1.00, 2.68, 2.20, 1.58, 7.14, repro,
2007-05-28,0.12, 1.14, 2.83, 2.20, 1.57, 7.08, repro,
2007-05-29,-0.68, 1.16, -0.61, 2.19, 1.55, 6.98, repro,
2007-05-30,-0.99, 0.80, 0.73, 2.19, 1.55, 6.92, repro,
2007-05-31,-2.02, -0.97, 4.93, 2.19, 1.60, 7.12, repro,
2007-06-01,-1.52, 0.07, 4.59, 2.18, 1.57, 7.06, repro,
2007-06-02,-0.48, 0.52, 7.22, 2.17, 1.55, 7.00, repro,
2007-06-03,-1.05, -0.29, 11.93, 2.25, 1.57, 7.16, repro,
2007-06-04,-0.72, 1.88, 6.12, 2.15, 1.53, 6.86, repro,
2007-06-05,-0.65, 1.87, 3.29, 2.19, 1.57, 7.09, repro,
2007-06-06,-2.03, 1.41, 16.05, 2.14, 1.55, 6.96, repro,
2007-06-07,-0.71, 0.58, 9.73, 2.16, 1.55, 7.02, repro,
2007-06-08,-2.47, 0.25, 4.78, 2.16, 1.56, 6.99, repro,
2007-06-09,-0.18, 2.93, 7.74, 2.17, 1.57, 7.03, repro,
2007-06-10,-0.73, 0.14, 12.23, 2.14, 1.54, 6.89, repro,
2007-06-11,-0.65, 0.68, 0.97, 2.20, 1.64, 7.30, repro,
2007-06-12,-1.90, -0.24, 6.96, 2.17, 1.59, 7.14, repro,
2007-06-13,-2.07, 0.54, -3.65, 2.20, 1.60, 7.13, repro,
2007-06-14,0.16, 0.54, -3.24, 2.19, 1.59, 7.05, repro,
2007-06-15,0.04, 0.52, 3.92, 2.15, 1.54, 6.96, repro,
2007-06-16,-0.85, -0.10, -4.26, 2.14, 1.54, 6.92, repro,
2007-06-17,0.98, 0.09, -2.17, 2.16, 1.56, 6.99, repro,
2007-06-18,-1.48, 0.55, 7.56, 2.16, 1.55, 7.00, repro,
2007-06-19,-1.04, 1.01, -0.93, 2.17, 1.55, 6.99, repro,
2007-06-20,-1.21, 1.80, 0.69, 2.36, 1.73, 7.77, repro,
2007-06-21,-1.27, 3.68, 4.05, 2.14, 1.54, 6.90, repro,
2007-06-22,-0.09, 3.14, -0.52, 2.23, 1.65, 7.38, repro,
2007-06-23,-0.79, -0.44, 0.30, 2.16, 1.56, 6.98, repro,
2007-06-24,0.09, 1.14, -2.61, 2.21, 1.61, 7.29, repro,
2007-06-25,-0.60, -0.56, -0.03, 2.17, 1.55, 7.02, repro,
2007-06-26,-0.85, 1.21, -2.14, 2.15, 1.54, 6.94, repro,
2007-06-27,-0.26, 0.85, -7.85, 2.14, 1.55, 6.93, repro,
2007-06-28,-0.91, 0.69, -6.78, 2.14, 1.55, 6.95, repro,
2007-06-29,-0.62, 0.35, 8.82, 2.16, 1.56, 7.04, repro,
2007-06-30,-0.06, 1.70, -5.61, 2.17, 1.56, 7.08, repro,
2007-07-01,-0.49, 0.44, -4.18, 2.15, 1.54, 6.97, repro,
2007-07-02,0.47, 0.70, 1.60, 2.13, 1.54, 6.92, repro,
2007-07-03,0.24, 0.56, 2.01, 2.14, 1.55, 6.94, repro,
2007-07-04,-0.87, 0.20, -3.63, 2.14, 1.55, 6.96, repro,
2007-07-05,-0.66, 1.15, -1.11, 2.16, 1.56, 7.02, repro,
2007-07-06,0.73, -0.67, 5.66, 2.22, 1.62, 7.26, repro,
2007-07-07,-1.70, 1.52, 0.24, 2.14, 1.55, 6.97, repro,
2007-07-08,-0.53, 0.80, 4.75, 2.20, 1.60, 7.09, repro,
2007-07-09,-0.62, 0.28, -0.23, 2.15, 1.55, 6.93, repro,
2007-07-10,-0.81, 0.57, 0.82, 2.19, 1.61, 7.12, repro,
2007-07-11,0.05, 1.43, -4.47, 2.27, 1.62, 7.44, repro,
2007-07-12,-1.04, 0.85, 3.41, 2.16, 1.56, 6.98, repro,
2007-07-13,-1.11, 1.70, 0.98, 2.19, 1.62, 7.19, repro,
2007-07-14,1.15, 1.84, 4.41, 2.18, 1.61, 7.20, repro,
2007-07-15,0.55, 0.83, 0.34, 2.19, 1.61, 7.15, repro,
2007-07-16,1.10, 1.78, -5.40, 2.17, 1.57, 7.06, repro,
2007-07-17,1.20, 1.60, 10.14, 2.23, 1.62, 7.33, repro,
2007-07-18,1.61, 2.78, -1.91, 2.16, 1.55, 6.96, repro,
2007-07-19,-1.58, -0.95, 0.17, 2.17, 1.58, 7.05, repro,
2007-07-20,-1.33, 0.40, 7.99, 2.15, 1.55, 6.94, repro,
2007-07-21,-0.41, 1.67, 7.40, 2.19, 1.61, 7.13, repro,
2007-07-22,0.33, 2.38, 6.35, 2.18, 1.57, 7.14, repro,
2007-07-23,-0.63, 1.31, 7.04, 2.19, 1.62, 7.19, repro,
2007-07-24,-0.54, 1.42, 13.58, 2.17, 1.55, 6.98, repro,
2007-07-25,1.96, -1.43, 7.67, 2.15, 1.57, 6.99, repro,
2007-07-26,-1.20, 0.83, 14.24, 2.15, 1.55, 6.95, repro,
2007-07-27,2.39, -0.75, 8.57, 2.23, 1.63, 7.29, repro,
2007-07-28,1.10, -0.27, 7.21, 2.20, 1.62, 7.20, repro,
2007-07-29,-0.49, 0.74, 11.35, 2.18, 1.61, 7.14, repro,
2007-07-30,0.15, 0.88, 9.24, 2.14, 1.55, 6.96, repro,
2007-07-31,0.31, 0.44, 10.86, 2.18, 1.62, 7.17, repro,
2007-08-01,-1.09, 0.35, 11.52, 2.15, 1.57, 7.05, repro,
2007-08-02,-0.37, 0.91, 14.69, 2.21, 1.61, 7.28, repro,
2007-08-03,-0.55, 0.61, 5.27, 2.16, 1.55, 7.02, repro,
2007-08-04,-0.28, -0.25, 13.13, 2.16, 1.55, 6.98, repro,
2007-08-05,-0.44, 0.19, 19.72, 2.17, 1.61, 7.10, repro,
2007-08-06,-1.88, 0.93, 20.06, 2.20, 1.60, 7.19, repro,
2007-08-07,-1.37, 0.63, 18.52, 2.21, 1.61, 7.24, repro,
2007-08-08,-2.10, 1.00, 15.04, 2.18, 1.56, 7.01, repro,
2007-08-09,0.82, 1.51, 13.20, 2.14, 1.54, 6.92, repro,
2007-08-10,-0.23, 2.13, 16.79, 2.15, 1.55, 6.94, repro,
2007-08-11,-0.79, -1.37, 15.64, 2.16, 1.56, 6.97, repro,
2007-08-12,-0.28, 0.46, 10.36, 2.17, 1.57, 7.07, repro,
2007-08-13,-0.59, 0.56, 9.14, 2.15, 1.55, 6.93, repro,
2007-08-14,-0.34, 1.72, 4.49, 2.28, 1.65, 7.36, repro,
2007-08-15,-0.66, 1.07, 13.24, 2.30, 1.66, 7.43, repro,
2007-08-16,-1.01, 0.22, 22.06, 2.25, 1.61, 7.24, repro,
2007-08-17,0.14, 0.50, 14.02, 2.28, 1.62, 7.35, repro,
2007-08-18,-1.85, 0.65, 14.39, 2.31, 1.66, 7.56, repro,
2007-08-19,1.67, 0.81, 16.61, 2.31, 1.63, 7.50, repro,
2007-08-20,0.17, -1.25, 7.19, 2.25, 1.59, 7.20, repro,
2007-08-21,-0.04, -1.24, 5.21, 2.24, 1.60, 7.18, repro,
2007-08-22,-0.78, -0.86, 13.94, 2.25, 1.61, 7.22, repro,
2007-08-23,-0.79, -0.32, 20.32, 2.21, 1.56, 7.07, repro,
2007-08-24,-0.25, 1.35, 14.28, 2.33, 1.65, 7.43, repro,
2007-08-25,0.15, 1.03, 16.27, 2.25, 1.62, 7.23, repro,
2007-08-26,-0.73, 1.69, 15.53, 2.28, 1.66, 7.34, repro,
2007-08-27,0.44, 0.47, 12.15, 2.30, 1.68, 7.45, repro,
2007-08-28,-1.53, 0.57, 12.12, 2.26, 1.65, 7.37, repro,
2007-08-29,-0.47, 0.81, 12.28, 2.25, 1.64, 7.29, repro,
2007-08-30,-1.09, 0.63, 14.26, 2.32, 1.70, 7.53, repro,
2007-08-31,0.09, 0.44, 12.05, 2.29, 1.64, 7.40, repro,
2007-09-01,1.36, -1.58, 14.05, 2.47, 1.73, 7.71, repro,
2007-09-02,-0.42, 1.75, 7.11, 2.28, 1.64, 7.33, repro,
2007-09-03,-0.89, 0.92, 15.94, 2.24, 1.64, 7.22, repro,
2007-09-04,-0.82, -1.20, 19.93, 2.26, 1.63, 7.26, repro,
2007-09-05,0.76, -0.78, 15.88, 2.25, 1.61, 7.19, repro,
2007-09-06,-1.45, -0.41, 18.07, 2.25, 1.62, 7.19, repro,
2007-09-07,-0.18, 0.79, 15.75, 2.25, 1.62, 7.20, repro,
2007-09-08,-0.03, 0.86, 10.41, 2.33, 1.72, 7.59, repro,
2007-09-09,-0.47, 1.03, 10.30, 2.34, 1.76, 7.72, repro,
2007-09-10,-0.30, -0.06, 11.07, 2.26, 1.64, 7.27, repro,
2007-09-11,-0.30, 0.36, 11.25, 2.26, 1.62, 7.20, repro,
2007-09-12,-1.24, 1.13, 15.37, 2.28, 1.64, 7.26, repro,
2007-09-13,-0.06, 1.36, 12.22, 2.28, 1.68, 7.43, repro,
2007-09-14,0.05, 0.31, 11.72, 2.29, 1.68, 7.41, repro,
2007-09-15,-0.59, -0.65, 16.58, 2.33, 1.66, 7.46, repro,
2007-09-16,1.15, -0.15, 23.99, 2.27, 1.63, 7.26, repro,
2007-09-17,0.40, -0.93, 14.00, 2.35, 1.72, 7.64, repro,
2007-09-18,-1.84, 0.22, 12.34, 2.18, 1.61, 7.02, repro,
2007-09-19,0.03, 0.72, 13.61, 2.17, 1.56, 6.94, repro,
2007-09-20,0.29, 0.41, 19.17, 2.21, 1.59, 7.14, repro,
2007-09-21,-0.77, 1.01, 15.67, 2.24, 1.58, 7.13, repro,
2007-09-22,0.11, 1.05, 16.36, 2.23, 1.57, 7.08, repro,
2007-09-23,-0.20, 1.16, 16.07, 2.26, 1.61, 7.19, repro,
2007-09-24,-1.16, 1.12, 13.85, 2.32, 1.63, 7.32, repro,
2007-09-25,-1.76, 1.26, 10.70, 2.24, 1.60, 7.20, repro,
2007-09-26,-1.09, -0.72, 21.36, 2.30, 1.57, 7.12, repro,
2007-09-27,-0.34, 2.22, 12.40, 2.24, 1.59, 7.18, repro,
2007-09-28,-1.07, 1.76, 19.36, 2.24, 1.65, 7.38, repro,
2007-09-29,-0.97, 0.35, 14.71, 2.24, 1.64, 7.23, repro,
2007-09-30,0.30, 1.02, 15.49, 2.26, 1.65, 7.32, repro,
2007-10-01,0.78, -0.40, 15.85, 2.25, 1.64, 7.25, repro,
2007-10-02,-0.49, 0.85, 20.63, 2.31, 1.70, 7.57, repro,
2007-10-03,0.11, 0.02, 25.02, 2.22, 1.62, 7.22, repro,
2007-10-04,-0.59, -0.04, 16.75, 2.20, 1.62, 7.21, repro,
2007-10-05,-0.29, 0.67, 18.63, 2.29, 1.69, 7.50, repro,
2007-10-06,0.16, 0.97, 18.43, 2.25, 1.64, 7.23, repro,
2007-10-07,-0.58, 1.45, 11.24, 2.40, 1.75, 7.69, repro,
2007-10-08,2.56, 1.36, 13.70, 2.58, 1.77, 8.10, repro,
2007-10-09,3.09, 6.03, 20.38, 2.44, 1.81, 7.90, repro,
2007-10-10,3.36, 2.82, 17.17, 2.42, 1.69, 7.63, repro,
2007-10-11,-0.21, 1.02, 10.93, 2.24, 1.64, 7.21, repro,
2007-10-12,-0.77, 0.64, 17.17, 2.33, 1.69, 7.52, repro,
2007-10-13,-1.06, 0.80, 20.30, 2.19, 1.59, 7.02, repro,
2007-10-14,-0.64, 0.86, 13.69, 2.25, 1.66, 7.29, repro,
2007-10-15,-0.81, 1.92, 16.79, 2.18, 1.60, 7.06, repro,
2007-10-16,0.50, 1.13, 20.79, 2.19, 1.59, 7.08, repro,
2007-10-17,-0.14, 0.83, 22.64, 2.21, 1.63, 7.26, repro,
2007-10-18,1.03, 1.08, 23.72, 2.27, 1.65, 7.29, repro,
2007-10-19,-0.80, 0.70, 25.07, 2.20, 1.59, 7.10, repro,
2007-10-20,-1.77, 0.25, 22.94, 2.20, 1.63, 7.22, repro,
2007-10-21,-0.55, 1.34, 8.72, 2.19, 1.59, 7.08, repro,
2007-10-22,-1.61, 1.15, 5.81, 2.18, 1.59, 7.12, repro,
2007-10-23,-0.55, 2.09, 1.52, 2.26, 1.65, 7.28, repro,
2007-10-24,0.30, 3.26, 7.43, 2.26, 1.67, 7.34, repro,
2007-10-25,-1.73, 0.67, 14.73, 2.19, 1.60, 7.06, repro,
2007-10-26,-0.35, 1.57, 6.42, 2.21, 1.64, 7.23, repro,
2007-10-27,0.03, 1.69, 3.76, 2.24, 1.65, 7.37, repro,
2007-10-28,-1.10, -0.70, 7.21, 2.19, 1.60, 7.08, repro,
2007-10-29,-1.15, 1.17, 10.09, 2.18, 1.58, 7.03, repro,
2007-10-30,-0.68, 0.82, 9.01, 2.16, 1.56, 6.94, repro,
2007-10-31,-1.30, 1.36, 10.53, 2.18, 1.59, 7.05, repro,
2007-11-01,-2.49, 1.23, 11.40, 2.14, 1.57, 6.94, repro,
2007-11-02,-1.08, 0.94, 7.28, 2.16, 1.56, 6.98, repro,
2007-11-03,-1.03, 0.71, 5.67, 2.16, 1.57, 6.97, repro,
2007-11-04,-0.90, 0.55, 9.63, 2.13, 1.54, 6.82, repro,
2007-11-05,-0.38, 0.88, 6.84, 2.13, 1.55, 6.84, repro,
2007-11-06,-1.07, 1.53, 1.72, 2.20, 1.65, 7.35, repro,
2007-11-07,-1.74, 1.59, 13.19, 2.16, 1.56, 6.94, repro,
2007-11-08,-2.32, 0.26, 9.33, 2.20, 1.61, 7.11, repro,
2007-11-09,0.04, 1.77, 12.09, 2.18, 1.59, 7.01, repro,
2007-11-10,1.13, 2.61, 18.24, 2.18, 1.58, 7.01, repro,
2007-11-11,-1.28, 0.15, 12.37, 2.13, 1.55, 6.83, repro,
2007-11-12,2.20, 2.98, 25.26, 2.20, 1.62, 7.23, repro,
2007-11-13,-3.60, -1.57, 18.97, 2.20, 1.59, 7.09, repro,
2007-11-14,-0.97, 0.56, 6.14, 2.16, 1.57, 6.96, repro,
2007-11-15,0.12, 1.17, 21.25, 2.16, 1.56, 6.94, repro,
2007-11-16,1.18, 1.96, 17.68, 2.13, 1.55, 6.84, repro,
2007-11-17,0.00, 0.53, 19.80, 2.14, 1.56, 6.91, repro,
2007-11-18,-0.37, 1.85, 10.13, 2.18, 1.58, 7.06, repro,
2007-11-19,-2.88, 0.83, 8.62, 2.16, 1.56, 6.94, repro,
2007-11-20,-0.48, 0.07, 5.96, 2.21, 1.65, 7.15, repro,
2007-11-21,-0.08, 0.68, 4.65, 2.18, 1.63, 7.08, repro,
2007-11-22,0.29, 0.29, 1.12, 2.20, 1.62, 7.03, repro,
2007-11-23,0.27, 1.00, 7.20, 2.24, 1.68, 7.30, repro,
2007-11-24,-0.73, 0.29, 10.15, 2.24, 1.66, 7.24, repro,
2007-11-25,-0.52, -0.17, 10.32, 2.23, 1.65, 7.24, repro,
2007-11-26,-0.06, 1.71, 7.24, 2.31, 1.73, 7.65, repro,
2007-11-27,1.18, 1.58, 12.62, 2.29, 1.72, 7.45, repro,
2007-11-28,-0.74, 0.30, 2.18, 2.29, 1.67, 7.28, repro,
2007-11-29,-0.36, 0.62, 4.32, 2.26, 1.64, 7.26, repro,
2007-11-30,0.38, 0.08, 6.30, 2.32, 1.70, 7.45, repro,
2007-12-01,-0.16, 0.25, 17.21, 2.38, 1.77, 7.85, repro,
2007-12-02,2.03, 2.47, 21.84, 2.27, 1.68, 7.56, repro,
2007-12-03,8.62, 7.84, 11.97, 2.41, 1.75, 7.97, repro,
2007-12-04,-3.08, 1.87, 2.46, 2.34, 1.76, 7.77, repro,
2007-12-05,-0.39, 1.50, 12.79, 2.43, 1.88, 8.18, repro,
2007-12-06,-0.46, -0.02, 6.44, 2.48, 1.84, 8.14, repro,
2007-12-07,0.66, 0.13, 8.11, 2.50, 1.93, 8.35, repro,
2007-12-08,0.01, -0.23, 7.63, 2.47, 1.94, 8.29, repro,
2007-12-09,0.59, -0.62, 2.44, 2.65, 2.23, 9.08, repro,
2007-12-10,0.32, 0.05, 4.63, 2.32, 1.74, 7.48, repro,
2007-12-11,-0.82, 0.38, 2.79, 2.28, 1.69, 7.34, repro,
2007-12-12,0.48, 0.33, 5.95, 2.40, 1.75, 7.68, repro,
2007-12-13,0.74, -0.13, 0.39, 2.27, 1.67, 7.29, repro,
2007-12-14,-0.03, 0.30, 4.07, 2.24, 1.60, 7.12, repro,
2007-12-15,1.19, 0.80, 11.28, 2.27, 1.66, 7.23, repro,
2007-12-16,-0.40, 0.69, 7.66, 2.25, 1.64, 7.14, repro,
2007-12-17,0.66, 2.67, 17.73, 2.26, 1.64, 7.18, repro,
2007-12-18,2.26, 2.60, 16.41, 2.22, 1.61, 7.15, repro,
2007-12-19,-0.19, -0.05, 18.51, 2.28, 1.64, 7.30, repro,
2007-12-20,1.25, 1.19, 17.34, 2.24, 1.62, 7.18, repro,
2007-12-21,-0.59, 0.75, 5.80, 2.32, 1.71, 7.64, repro,
2007-12-22,-0.17, 0.83, 7.27, 2.23, 1.65, 7.21, repro,
2007-12-23,0.45, -0.22, 2.43, 2.25, 1.65, 7.28, repro,
2007-12-24,1.93, 0.94, 10.63, 2.25, 1.65, 7.21, repro,
2007-12-25,-0.08, 0.12, 6.55, 2.27, 1.65, 7.26, repro,
2007-12-26,0.60, 0.77, 12.19, 2.27, 1.66, 7.29, repro,
2007-12-27,-0.48, 0.08, 10.11, 2.26, 1.64, 7.29, repro,
2007-12-28,0.49, 0.33, 9.86, 2.25, 1.63, 7.24, repro,
2007-12-29,-0.01, -0.10, 13.21, 2.25, 1.62, 7.22, repro,
2007-12-30,-0.08, 1.45, 11.11, 2.26, 1.62, 7.28, repro,
2007-12-31,-0.21, 0.34, -2.37, 2.21, 1.56, 7.01, repro,
2008-01-01,-0.44, 0.52, -3.37, 2.22, 1.57, 7.05, repro,
2008-01-02,-2.17, 0.07, -2.73, 2.19, 1.56, 6.97, repro,
2008-01-03,0.90, 2.42, 14.76, 2.16, 1.53, 6.86, repro,
2008-01-04,-3.28, -3.04, 16.76, 2.18, 1.54, 6.92, repro,
2008-01-05,-3.31, -0.77, 14.46, 2.17, 1.54, 6.91, repro,
2008-01-06,0.51, 1.98, 17.59, 2.23, 1.60, 7.14, repro,
2008-01-07,-0.74, 0.00, 15.14, 2.16, 1.54, 6.90, repro,
2008-01-08,-0.24, 0.83, 8.65, 2.23, 1.55, 6.99, repro,
2008-01-09,0.45, 0.50, 10.00, 2.20, 1.54, 6.91, repro,
2008-01-10,0.15, 0.18, 8.19, 2.15, 1.53, 6.85, repro,
2008-01-11,-1.89, -0.32, 10.58, 2.16, 1.54, 6.86, repro,
2008-01-12,-0.65, 0.25, 2.42, 2.17, 1.55, 6.90, repro,
2008-01-13,-0.60, 0.30, -5.36, 2.18, 1.55, 6.94, repro,
2008-01-14,0.01, 1.51, 1.07, 2.16, 1.55, 6.87, repro,
2008-01-15,-2.84, 0.30, 3.82, 2.15, 1.54, 6.85, repro,
2008-01-16,-0.75, -0.19, -3.27, 2.19, 1.57, 6.97, repro,
2008-01-17,-1.83, 0.15, 1.34, 2.22, 1.57, 7.06, repro,
2008-01-18,-0.04, 0.42, -1.60, 2.20, 1.59, 7.13, repro,
2008-01-19,2.71, 0.30, -2.69, 2.20, 1.56, 7.05, repro,
2008-01-20,-0.16, 0.69, -0.28, 2.17, 1.55, 6.94, repro,
2008-01-21,-0.37, 0.10, 4.38, 2.23, 1.60, 7.08, repro,
2008-01-22,-0.24, -0.02, -2.66, 2.44, 1.83, 8.04, repro,
2008-01-23,0.15, 0.53, 3.33, 2.25, 1.57, 7.15, repro,
2008-01-24,-0.09, 1.00, 7.25, 2.19, 1.56, 7.05, repro,
2008-01-25,1.11, 0.24, 5.62, 2.18, 1.59, 7.11, repro,
2008-01-26,-0.48, 0.47, 13.53, 2.12, 1.53, 6.79, repro,
2008-01-27,-8.73, -3.43, 8.52, 2.14, 1.55, 6.86, repro,
2008-01-28,-0.00, 0.56, 18.84, 2.17, 1.55, 6.93, repro,
2008-01-29,1.20, 1.53, 15.18, 2.28, 1.66, 7.32, repro,
2008-01-30,1.57, 1.71, 11.38, 2.34, 1.65, 7.44, repro,
2008-01-31,-0.15, 1.48, 7.66, 2.17, 1.56, 7.01, repro,
2008-02-01,1.17, 1.78, 7.80, 2.13, 1.54, 6.85, repro,
2008-02-02,2.24, 1.52, 5.35, 2.16, 1.55, 6.92, repro,
2008-02-03,0.96, 1.33, 11.24, 2.19, 1.56, 7.02, repro,
2008-02-04,0.60, 1.50, 6.80, 2.18, 1.55, 7.04, repro,
2008-02-05,-0.16, 1.83, 6.04, 2.23, 1.62, 7.20, repro,
2008-02-06,-0.04, 1.00, 5.53, 2.18, 1.60, 7.02, repro,
2008-02-07,-1.15, 0.28, 14.90, 2.18, 1.57, 7.02, repro,
2008-02-08,-0.44, 0.96, 3.91, 2.16, 1.55, 6.97, repro,
2008-02-09,0.30, 0.33, 0.49, 2.21, 1.61, 7.12, repro,
2008-02-10,1.06, 3.42, 7.84, 2.16, 1.54, 6.97, repro,
2008-02-11,-0.03, 2.32, 3.26, 2.14, 1.54, 6.90, repro,
2008-02-12,-0.29, 1.44, 0.65, 2.18, 1.60, 7.02, repro,
2008-02-13,-0.13, 0.64, 6.76, 2.14, 1.54, 6.81, repro,
2008-02-14,0.41, 0.67, -0.64, 2.18, 1.56, 6.95, repro,
2008-02-15,-0.03, 1.09, -2.77, 2.20, 1.61, 7.14, repro,
2008-02-16,-0.90, 1.37, 3.87, 2.15, 1.55, 6.91, repro,
2008-02-17,-0.10, 1.29, -0.66, 2.14, 1.54, 6.87, repro,
2008-02-18,-0.67, 0.83, 2.38, 2.13, 1.55, 6.87, repro,
2008-02-19,-0.42, 1.12, 2.40, 2.16, 1.56, 6.94, repro,
2008-02-20,-0.42, 1.96, 2.26, 2.16, 1.56, 6.94, repro,
2008-02-21,-1.93, 1.44, 11.07, 2.16, 1.54, 6.91, repro,
2008-02-22,-1.01, 1.08, 7.49, 2.14, 1.54, 6.88, repro,
2008-02-23,0.01, 1.72, 6.12, 2.14, 1.53, 6.82, repro,
2008-02-24,-0.70, 1.68, 7.01, 2.16, 1.56, 6.95, repro,
2008-02-25,-0.41, 2.17, 1.34, 2.16, 1.56, 6.91, repro,
2008-02-26,-0.65, 0.32, -6.97, 2.17, 1.54, 6.89, repro,
2008-02-27,-0.68, 1.68, -4.59, 2.15, 1.54, 6.87, repro,
2008-02-28,-0.93, 0.64, -2.08, 2.19, 1.59, 7.10, repro,
2008-02-29,0.07, 2.39, -2.41, 2.21, 1.57, 7.07, repro,
2008-03-01,-2.41, 0.61, 5.08, 2.18, 1.56, 7.02, repro,
2008-03-02,-1.05, 1.42, -1.91, 2.16, 1.55, 6.91, repro,
2008-03-03,0.23, 2.78, -0.94, 2.16, 1.54, 6.90, repro,
2008-03-04,-0.53, 0.90, -0.99, 2.15, 1.54, 6.89, repro,
2008-03-05,-0.74, 1.15, -2.33, 2.23, 1.66, 7.26, repro,
2008-03-06,-0.93, 1.27, -2.38, 2.19, 1.60, 7.13, repro,
2008-03-07,-2.16, 0.23, 2.28, 2.17, 1.55, 6.92, repro,
2008-03-08,-1.97, 1.93, 2.11, 2.25, 1.60, 7.26, repro,
2008-03-09,-0.67, 1.16, -4.81, 2.18, 1.57, 7.04, repro,
2008-03-10,-1.94, 1.88, -3.36, 2.16, 1.54, 6.92, repro,
2008-03-11,0.37, 2.14, -2.27, 2.16, 1.56, 6.97, repro,
2008-03-12,-1.71, -0.21, 2.05, 2.20, 1.59, 7.14, repro,
2008-03-13,-0.31, 1.12, 4.74, 2.19, 1.58, 7.12, repro,
2008-03-14,-1.15, 0.35, 5.10, 2.18, 1.58, 7.07, repro,
2008-03-15,-1.76, 1.17, 0.36, 2.17, 1.57, 7.02, repro,
2008-03-16,-1.08, 1.82, 3.32, 2.23, 1.62, 7.26, repro,
2008-03-17,-0.65, 0.69, -0.47, 2.40, 1.79, 8.02, repro,
2008-03-18,-0.42, 1.55, 3.97, 2.21, 1.62, 7.25, repro,
2008-03-19,-0.33, 1.27, 6.92, 2.18, 1.57, 7.03, repro,
2008-03-20,-1.95, 1.84, -1.47, 2.18, 1.57, 7.02, repro,
2008-03-21,0.21, 1.20, -4.45, 2.18, 1.57, 7.06, repro,
2008-03-22,0.28, 0.96, -5.94, 2.22, 1.59, 7.17, repro,
2008-03-23,-0.30, 1.83, -2.07, 2.21, 1.58, 7.13, repro,
2008-03-24,-1.82, 0.18, -0.65, 2.20, 1.57, 7.07, repro,
2008-03-25,-0.87, 1.36, 1.17, 2.22, 1.62, 7.15, repro,
2008-03-26,0.54, 1.43, 3.00, 2.22, 1.61, 7.13, repro,
2008-03-27,-0.07, 1.41, -4.04, 2.23, 1.62, 7.19, repro,
2008-03-28,1.34, 1.67, 5.71, 2.20, 1.57, 7.02, repro,
2008-03-29,-0.15, 0.47, 3.04, 2.18, 1.54, 6.94, repro,
2008-03-30,-0.76, 1.16, 2.75, 2.18, 1.54, 6.97, repro,
2008-03-31,-1.25, 0.77, 3.43, 2.19, 1.55, 7.01, repro,
2008-04-01,0.61, 1.57, -2.85, 2.21, 1.55, 7.05, repro,
2008-04-02,-0.79, 1.28, -1.34, 2.27, 1.56, 7.11, repro,
2008-04-03,-0.75, 0.74, 0.59, 2.19, 1.56, 7.04, repro,
2008-04-04,-1.39, 0.75, 4.44, 2.17, 1.54, 6.96, repro,
2008-04-05,-1.40, 1.17, 7.21, 2.17, 1.55, 6.99, repro,
2008-04-06,-1.28, 0.78, 8.41, 2.17, 1.54, 6.98, repro,
2008-04-07,-1.98, 0.56, 2.09, 2.21, 1.55, 7.08, repro,
2008-04-08,-1.89, 0.84, 0.52, 2.17, 1.54, 6.93, repro,
2008-04-09,-2.10, 0.24, 4.33, 2.17, 1.53, 6.94, repro,
2008-04-10,-1.17, 1.59, -2.33, 2.22, 1.56, 7.14, repro,
2008-04-11,-1.47, 0.02, -7.33, 2.18, 1.55, 7.03, repro,
2008-04-12,-1.26, 0.51, -7.25, 2.20, 1.55, 7.08, repro,
2008-04-13,-2.08, 1.87, 1.98, 2.20, 1.56, 7.12, repro,
2008-04-14,-1.89, -0.29, 1.22, 2.16, 1.54, 6.94, repro,
2008-04-15,-1.65, 0.61, 8.48, 2.22, 1.61, 7.16, repro,
2008-04-16,-1.57, 0.61, 2.25, 2.20, 1.61, 7.12, repro,
2008-04-17,-1.36, 0.85, 0.40, 2.18, 1.55, 7.02, repro,
2008-04-18,1.38, 0.24, 2.48, 2.19, 1.54, 7.03, repro,
2008-04-19,-1.41, 0.15, 1.11, 2.18, 1.52, 6.93, repro,
2008-04-20,-1.61, 1.38, 1.94, 2.17, 1.53, 6.95, repro,
2008-04-21,-2.48, 0.02, 1.18, 2.17, 1.53, 6.97, repro,
2008-04-22,-2.15, 1.30, 5.54, 2.17, 1.53, 6.95, repro,
2008-04-23,-2.05, 1.82, 11.21, 2.26, 1.58, 7.25, repro,
2008-04-24,-2.31, 0.67, 1.23, 2.20, 1.55, 7.05, repro,
2008-04-25,-1.30, 1.31, -3.34, 2.18, 1.53, 6.95, repro,
2008-04-26,-1.04, 0.95, -6.06, 2.29, 1.61, 7.27, repro,
2008-04-27,-1.25, 1.46, -2.20, 2.27, 1.56, 7.06, repro,
2008-04-28,-0.39, 2.01, -0.78, 2.27, 1.55, 7.02, repro,
2008-04-29,-2.55, 0.21, 3.49, 2.38, 1.63, 7.43, repro,
2008-04-30,-1.26, 0.62, 3.44, 2.24, 1.57, 7.10, repro,
2008-05-01,-0.95, 0.41, -1.59, 2.30, 1.61, 7.28, repro,
2008-05-02,-1.45, 1.21, -3.83, 2.23, 1.57, 7.12, repro,
2008-05-03,-2.02, 0.44, 0.37, 2.18, 1.53, 6.96, repro,
2008-05-04,-1.80, 1.03, 1.19, 2.18, 1.52, 6.90, repro,
2008-05-05,-0.72, 1.62, -0.41, 2.23, 1.57, 7.08, repro,
2008-05-06,-1.35, 1.83, -4.85, 2.25, 1.57, 7.15, repro,
2008-05-07,-1.28, -0.15, -1.40, 2.20, 1.54, 7.04, repro,
2008-05-08,-1.57, 0.75, -0.02, 2.20, 1.55, 7.05, repro,
2008-05-09,-1.57, -0.02, -0.96, 2.21, 1.55, 7.00, repro,
2008-05-10,-1.31, 0.80, 2.77, 2.24, 1.56, 7.04, repro,
2008-05-11,-1.80, 0.23, 5.54, 2.24, 1.57, 7.15, repro,
2008-05-12,-0.89, 0.38, 4.30, 2.25, 1.57, 7.12, repro,
2008-05-13,-1.24, 0.33, 2.67, 2.21, 1.53, 6.98, repro,
2008-05-14,-1.30, 1.76, 0.95, 2.19, 1.52, 6.87, repro,
2008-05-15,-1.22, 0.50, -3.85, 2.21, 1.52, 6.91, repro,
2008-05-16,-1.77, 0.90, -8.84, 2.22, 1.53, 6.98, repro,
2008-05-17,-1.13, 1.22, -3.47, 2.22, 1.57, 7.12, repro,
2008-05-18,-0.44, 0.63, -6.58, 2.25, 1.57, 7.15, repro,
2008-05-19,0.43, 0.54, -0.04, 2.17, 1.53, 6.89, repro,
2008-05-20,-2.12, 0.00, 6.66, 2.18, 1.52, 6.91, repro,
2008-05-21,-0.82, 1.60, 8.25, 2.24, 1.57, 7.10, repro,
2008-05-22,-1.28, 0.94, 6.10, 2.21, 1.57, 7.11, repro,
2008-05-23,-1.20, 1.03, 10.19, 2.20, 1.56, 7.07, repro,
2008-05-24,-0.26, 0.20, 3.82, 2.19, 1.53, 7.01, repro,
2008-05-25,-0.07, 0.18, 0.20, 2.19, 1.53, 6.94, repro,
2008-05-26,-0.67, 0.30, 1.30, 2.21, 1.56, 7.10, repro,
2008-05-27,-1.84, 0.69, 0.04, 2.19, 1.54, 7.00, repro,
2008-05-28,-1.98, 1.98, 0.25, 2.19, 1.53, 6.98, repro,
2008-05-29,-3.09, 0.10, 4.28, 2.22, 1.58, 7.08, repro,
2008-05-30,-0.16, 0.63, 0.30, 2.21, 1.53, 6.99, repro,
2008-05-31,-1.04, 1.43, -4.91, 2.19, 1.53, 6.92, repro,
2008-06-01,-0.25, 1.46, 3.94, 2.19, 1.53, 6.98, repro,
2008-06-02,-0.49, 1.30, 2.57, 2.20, 1.53, 6.96, repro,
2008-06-03,-0.98, 2.21, 3.35, 2.25, 1.59, 7.21, repro,
2008-06-04,-0.30, 0.27, 6.52, 2.19, 1.53, 6.95, repro,
2008-06-05,-1.11, 1.25, 1.82, 2.20, 1.53, 6.95, repro,
2008-06-06,-2.02, 0.91, 1.30, 2.25, 1.57, 7.15, repro,
2008-06-07,-1.01, 1.50, 4.69, 2.25, 1.61, 7.20, repro,
2008-06-08,-1.00, 1.17, 1.27, 2.24, 1.58, 7.10, repro,
2008-06-09,-1.50, 0.33, 9.78, 2.24, 1.58, 7.13, repro,
2008-06-10,1.20, 1.90, 9.42, 2.20, 1.54, 7.02, repro,
2008-06-11,-0.23, 2.71, 0.69, 2.20, 1.53, 6.96, repro,
2008-06-12,-1.41, 1.88, 0.03, 2.21, 1.56, 7.09, repro,
2008-06-13,-0.91, 1.18, -2.44, 2.20, 1.54, 7.01, repro,
2008-06-14,0.27, 2.39, 0.67, 2.25, 1.58, 7.12, repro,
2008-06-15,-0.60, 1.46, 0.54, 2.26, 1.56, 7.14, repro,
2008-06-16,-0.71, 2.83, 0.80, 2.19, 1.53, 6.96, repro,
2008-06-17,-1.60, 1.95, 3.89, 2.22, 1.54, 7.04, repro,
2008-06-18,-0.44, 1.65, -2.09, 2.21, 1.54, 7.08, repro,
2008-06-19,-1.36, 1.82, -1.01, 2.23, 1.60, 7.24, repro,
2008-06-20,1.35, 2.41, 3.98, 2.19, 1.53, 6.94, repro,
2008-06-21,0.94, 2.99, 4.12, 2.20, 1.54, 7.01, repro,
2008-06-22,-2.34, 1.73, -11.41, 2.20, 1.54, 6.95, repro,
2008-06-23,-0.57, 2.98, 4.25, 2.20, 1.53, 6.95, repro,
2008-06-24,-0.36, 1.66, 4.53, 2.21, 1.55, 7.01, repro,
2008-06-25,-1.16, 2.52, -0.96, 2.19, 1.53, 6.90, repro,
2008-06-26,-0.53, 0.97, 10.04, 2.22, 1.57, 7.07, repro,
2008-06-27,-0.61, 0.79, 6.79, 2.19, 1.53, 6.90, repro,
2008-06-28,-0.30, 1.65, 3.52, 2.20, 1.54, 6.94, repro,
2008-06-29,-0.58, 1.79, 0.32, 2.19, 1.54, 6.97, repro,
2008-06-30,-0.91, 1.04, 6.62, 2.25, 1.60, 7.16, repro,
2008-07-01,-0.81, 1.96, -3.42, 2.22, 1.56, 7.09, repro,
2008-07-02,-0.82, -0.17, -1.24, 2.23, 1.56, 7.07, repro,
2008-07-03,-0.92, 1.18, 1.63, 2.19, 1.54, 6.93, repro,
2008-07-04,-0.54, 1.24, 12.97, 2.19, 1.54, 6.96, repro,
2008-07-05,-0.47, 1.24, 9.12, 2.23, 1.58, 7.12, repro,
2008-07-06,0.44, 0.83, 7.37, 2.20, 1.53, 6.96, repro,
2008-07-07,0.21, -0.01, 5.05, 2.19, 1.53, 6.93, repro,
2008-07-08,0.10, 0.17, 7.39, 2.20, 1.53, 6.92, repro,
2008-07-09,0.22, 1.31, 5.74, 2.20, 1.53, 6.93, repro,
2008-07-10,1.56, 0.37, 7.70, 2.24, 1.56, 7.03, repro,
2008-07-11,1.93, 0.64, 3.60, 2.26, 1.57, 7.12, repro,
2008-07-12,0.84, 0.72, 5.41, 2.20, 1.53, 7.00, repro,
2008-07-13,1.01, 1.14, 3.04, 2.22, 1.60, 7.19, repro,
2008-07-14,-1.08, 1.76, 10.09, 2.22, 1.55, 7.02, repro,
2008-07-15,0.25, 0.82, 8.84, 2.20, 1.54, 6.99, repro,
2008-07-16,-0.11, 0.27, 8.13, 2.18, 1.52, 6.90, repro,
2008-07-17,0.52, 0.74, 10.35, 2.20, 1.54, 6.99, repro,
2008-07-18,-0.45, 1.64, 10.41, 2.34, 1.59, 7.31, repro,
2008-07-19,1.33, 1.47, 8.39, 2.25, 1.54, 7.04, repro,
2008-07-20,-0.06, 1.55, 9.56, 2.19, 1.53, 6.92, repro,